Weather History for St. Francis, KS

Change the Weather History Date:

Saturday, May 5, 2012

  Actual Average Record
Temperature  
Mean Temperature 66 °F -  
Max Temperature 85 °F 73 °F 65 °F (2013)
Min Temperature 48 °F 43 °F 27 °F (2013)
Cooling Degree Days 1    
Growing Degree Days 16 (Base 50)    
Moisture  
Dew Point 51 °F    
Average Humidity 57    
Maximum Humidity 87    
Minimum Humidity 28    
Precipitation  
Precipitation 0.00 in - - ()
Sea Level Pressure  
Sea Level Pressure 29.77 in    
Wind  
Wind Speed 5 mph ()    
Max Wind Speed 21 mph    
Max Gust Speed 28 mph    
Visibility 9.9 miles    
Events      
Averages and records for this station are not official NWS values.
T = Trace of Precipitation, MM = Missing Value Source: Averaged Metar Reports

Daily Weather History Graph

Daily Weather History Graph

Search for Another Location

Airport:

Trip Planner

Search our weather history database for the weather conditions in past years. The results will help you decide how hot, cold, wet, or windy it might be!

Date:

Astronomy

May. 05, 2012 Rise Set
Actual Time 6:42 AM CDT 8:45 PM CDT
Civil Twilight 6:12 AM CDT 9:15 PM CDT
Nautical Twilight 5:36 AM CDT 9:52 PM CDT
Astronomical Twilight 4:57 AM CDT 10:31 PM CDT
Moon 8:41 PM CDT (5/5) 6:06 AM CDT (5/5)
Length of Visible Light 15h 02m
Length of Day
14h 03m
Full, 100% of the Moon is Illuminated
May 5
Full
May 5
Full
May 12
Last Quarter
May 20
New
May 28
First Quarter

Hourly Weather History & Observations

Time (CDT) Temp. Heat Index Dew Point Humidity Pressure Visibility Wind Dir Wind Speed Gust Speed Precip Events Conditions
12:15 AM 60.1 °F - 45.0 °F 57% 29.78 in 10.0 mi Calm Calm - N/A   Clear
12:35 AM 61.2 °F - 44.1 °F 53% 29.78 in 10.0 mi Calm Calm - N/A   Clear
12:55 AM 59.0 °F - 44.6 °F 59% 29.77 in 10.0 mi Calm Calm - N/A   Clear
1:15 AM 59.7 °F - 44.2 °F 57% 29.77 in 10.0 mi Calm Calm - N/A   Clear
1:35 AM 60.8 °F - 43.2 °F 52% 29.77 in 10.0 mi South 3.5 mph - N/A   Clear
1:55 AM 59.9 °F - 43.0 °F 54% 29.76 in 10.0 mi Calm Calm - N/A   Clear
2:15 AM 59.0 °F - 43.0 °F 55% 29.76 in 10.0 mi Calm Calm - N/A   Clear
2:35 AM 53.4 °F - 45.3 °F 74% 29.76 in 10.0 mi North 3.5 mph - N/A   Clear
2:55 AM 54.3 °F - 46.4 °F 75% 29.76 in 10.0 mi Calm Calm - N/A   Clear
3:15 AM 55.8 °F - 45.1 °F 67% 29.75 in 10.0 mi Calm Calm - N/A   Clear
3:35 AM 55.4 °F - 45.1 °F 68% 29.75 in 10.0 mi Calm Calm - N/A   Clear
3:55 AM 54.3 °F - 44.6 °F 70% 29.74 in 10.0 mi Calm Calm - N/A   Clear
4:15 AM 54.5 °F - 44.2 °F 68% 29.74 in 10.0 mi Calm Calm - N/A   Clear
4:35 AM 53.1 °F - 43.9 °F 71% 29.75 in 10.0 mi Calm Calm - N/A   Clear
4:55 AM 52.5 °F - 43.9 °F 72% 29.75 in 10.0 mi Calm Calm - N/A   Clear
5:15 AM 52.5 °F - 41.9 °F 67% 29.75 in 10.0 mi Calm Calm - N/A   Clear
5:35 AM 52.7 °F - 42.3 °F 68% 29.76 in 10.0 mi WSW 13.8 mph - N/A   Clear
5:55 AM 54.0 °F - 41.7 °F 63% 29.76 in 10.0 mi SW 11.5 mph - N/A   Clear
6:15 AM 54.1 °F - 41.0 °F 61% 29.76 in 10.0 mi SSW 6.9 mph - N/A   Clear
6:35 AM 53.1 °F - 40.6 °F 63% 29.76 in 10.0 mi SW 9.2 mph - N/A   Clear
6:55 AM 49.6 °F - 39.9 °F 69% 29.77 in 10.0 mi NNW 4.6 mph - N/A   Clear
7:15 AM 48.9 °F - 41.5 °F 76% 29.77 in 10.0 mi Calm Calm - N/A   Clear
7:35 AM 52.0 °F - 43.9 °F 74% 29.77 in 10.0 mi Calm Calm - N/A   Clear
7:55 AM 52.2 °F - 45.5 °F 78% 29.78 in 10.0 mi West 6.9 mph - N/A   Clear
8:15 AM 54.0 °F - 46.8 °F 77% 29.78 in 10.0 mi West 3.5 mph - N/A   Clear
8:35 AM 56.5 °F - 49.6 °F 78% 29.79 in 10.0 mi West 5.8 mph - N/A   Clear
8:55 AM 59.4 °F - 52.2 °F 77% 29.79 in 10.0 mi NW 8.1 mph - N/A   Clear
9:15 AM 59.0 °F - 52.7 °F 80% 29.80 in 10.0 mi NW 9.2 mph - N/A   Clear
9:35 AM 58.5 °F - 54.7 °F 87% 29.81 in 5.0 mi NW 9.2 mph - N/A   Mostly Cloudy
9:55 AM 60.6 °F - 55.4 °F 83% 29.81 in 10.0 mi NW 9.2 mph - N/A   Overcast
10:15 AM 64.2 °F - 56.7 °F 76% 29.79 in 10.0 mi NW 8.1 mph - N/A   Mostly Cloudy
10:35 AM 65.8 °F - 56.7 °F 72% 29.79 in 10.0 mi NW 8.1 mph - N/A   Scattered Clouds
10:55 AM 68.9 °F - 57.7 °F 68% 29.79 in 10.0 mi NW 9.2 mph - N/A   Clear
11:15 AM 71.2 °F - 56.5 °F 60% 29.79 in 10.0 mi NW 10.4 mph - N/A   Clear
11:35 AM 72.9 °F - 57.2 °F 58% 29.79 in 10.0 mi NW 9.2 mph - N/A   Clear
11:55 AM 74.7 °F - 57.4 °F 55% 29.79 in 10.0 mi NNW 9.2 mph - N/A   Clear
12:15 PM 76.1 °F - 57.2 °F 52% 29.79 in 10.0 mi NNW 10.4 mph - N/A   Clear
12:35 PM 77.9 °F - 56.7 °F 48% 29.79 in 10.0 mi North 15.0 mph 19.6 mph N/A   Clear
12:55 PM 79.3 °F - 56.5 °F 45% 29.79 in 10.0 mi North 15.0 mph 20.7 mph N/A   Clear
1:15 PM 79.5 °F - 55.4 °F 43% 29.79 in 10.0 mi North 13.8 mph 18.4 mph N/A   Clear
1:35 PM 80.6 °F 80.4 °F 54.0 °F 40% 29.78 in 10.0 mi North 15.0 mph 20.7 mph N/A   Clear
1:55 PM 81.1 °F 80.8 °F 54.5 °F 40% 29.78 in 10.0 mi North 13.8 mph 18.4 mph N/A   Clear
2:15 PM 82.2 °F 81.2 °F 53.1 °F 36% 29.78 in 10.0 mi North 15.0 mph - N/A   Clear
2:35 PM 81.7 °F 81.2 °F 55.4 °F 40% 29.79 in 10.0 mi NNW 13.8 mph 19.6 mph N/A   Clear
2:55 PM 82.0 °F 81.4 °F 55.0 °F 39% 29.79 in 10.0 mi NNW 15.0 mph - N/A   Clear
3:15 PM 82.4 °F 81.4 °F 53.4 °F 37% 29.78 in 10.0 mi North 9.2 mph 17.3 mph N/A   Clear
3:35 PM 82.9 °F 81.8 °F 53.2 °F 36% 29.77 in 10.0 mi NNE 9.2 mph 16.1 mph N/A   Clear
3:55 PM 83.5 °F - 52.7 °F 34% 29.76 in 10.0 mi North 9.2 mph 17.3 mph N/A   Clear
4:15 PM 84.2 °F - 51.4 °F 32% 29.75 in 10.0 mi North 11.5 mph - N/A   Clear
4:35 PM 84.6 °F - 50.0 °F 30% 29.74 in 10.0 mi North 6.9 mph - N/A   Clear
4:55 PM 84.2 °F - 51.1 °F 32% 29.74 in 10.0 mi NW 6.9 mph - N/A   Clear
5:15 PM 84.9 °F - 50.0 °F 30% 29.74 in 10.0 mi NNW 6.9 mph - N/A   Clear
5:35 PM 84.7 °F - 49.8 °F 30% 29.74 in 10.0 mi NNW 5.8 mph 9.2 mph N/A   Clear
5:55 PM 84.9 °F - 50.0 °F 30% 29.73 in 10.0 mi North 8.1 mph - N/A   Clear
6:15 PM 84.4 °F - 49.3 °F 29% 29.73 in 10.0 mi North 5.8 mph - N/A   Clear
6:35 PM 84.6 °F - 47.8 °F 28% 29.72 in 10.0 mi North 4.6 mph - N/A   Clear
6:55 PM 83.7 °F - 48.6 °F 29% 29.72 in 10.0 mi North 4.6 mph - N/A   Clear
7:15 PM 82.9 °F - 48.4 °F 30% 29.72 in 10.0 mi North 8.1 mph - N/A   Clear
7:35 PM 81.5 °F - 49.5 °F 33% 29.72 in 10.0 mi North 9.2 mph - N/A   Clear
7:55 PM 79.9 °F - 51.6 °F 37% 29.72 in 10.0 mi North 8.1 mph - N/A   Clear
8:15 PM 78.3 °F - 52.3 °F 40% 29.72 in 10.0 mi North 3.5 mph - N/A   Clear
8:35 PM 74.8 °F - 52.9 °F 46% 29.72 in 10.0 mi NNE 6.9 mph - N/A   Clear
8:55 PM 72.1 °F - 54.5 °F 54% 29.72 in 10.0 mi NE 6.9 mph - N/A   Clear
9:15 PM 69.8 °F - 55.8 °F 61% 29.73 in 10.0 mi ENE 9.2 mph - N/A   Clear
9:35 PM 70.5 °F - 59.7 °F 69% 29.74 in 10.0 mi NE 9.2 mph - N/A   Clear
9:55 PM 69.1 °F - 60.4 °F 74% 29.76 in 10.0 mi NNE 8.1 mph - N/A   Clear
10:15 PM 68.7 °F - 60.8 °F 76% 29.79 in 10.0 mi North 13.8 mph 19.6 mph N/A   Clear
10:35 PM 69.3 °F - 60.4 °F 73% 29.79 in 10.0 mi NNE 13.8 mph 18.4 mph N/A   Clear
10:55 PM 68.0 °F - 58.6 °F 72% 29.80 in 10.0 mi North 18.4 mph 24.2 mph N/A   Clear
11:15 PM 65.3 °F - 56.7 °F 74% 29.81 in 10.0 mi North 15.0 mph 21.9 mph N/A   Clear
11:35 PM 64.0 °F - 56.1 °F 75% 29.82 in 10.0 mi North 18.4 mph - N/A   Scattered Clouds
11:55 PM 63.5 °F - 55.8 °F 76% 29.85 in 10.0 mi North 20.7 mph 27.6 mph N/A   Mostly Cloudy